Wind_Speed
10 10 9 9 9 9 8 8 8 8 6 5 3 2 2 2 4 6 8 8 9 11 12 13 13 13 12 12 11 10 9 8 8 8 7 6 5 5 6 6 6 6 5 5 4 4 5 5 5
10 9 9 9 9 8 8 9 9 8 7 5 4 3 2 3 4 6 7 9 9 11 12 13 13 14 13 13 12 11 10 9 8 7 6 5 5 5 5 5 5 5 5 5 4 4 4 4 4
10 9 9 9 9 7 8 9 9 8 7 6 4 4 3 3 4 5 7 8 10 11 12 13 14 14 14 13 13 12 11 10 9 7 6 5 4 4 4 4 4 4 5 4 4 4 4 3 3
10 9 9 9 8 8 8 9 9 9 8 7 5 4 3 4 5 6 6 8 9 11 12 13 14 14 14 13 13 12 11 10 9 8 6 4 3 3 3 3 3 4 4 4 3 3 3 3 3
9 9 9 9 9 9 9 10 10 10 9 8 7 6 5 4 5 6 7 8 10 11 12 14 14 14 14 14 14 13 12 11 10 8 6 4 3 2 2 2 3 3 3 2 2 2 2 2 2
9 9 9 6 8 9 10 10 10 10 9 9 7 6 6 5 5 6 7 9 10 12 13 14 15 16 15 15 15 13 12 11 10 8 6 4 3 2 1 1 2 2 2 2 1 1 1 1 1
9 8 7 6 7 9 10 10 10 10 10 10 9 8 7 6 6 6 7 9 11 12 14 15 16 17 16 16 15 14 13 12 10 9 7 5 3 2 1 1 1 1 1 1 2 2 1 1 1
8 7 7 7 7 8 9 10 11 11 11 11 10 10 9 8 7 7 7 8 11 13 14 16 16 17 17 17 16 15 14 13 11 9 7 5 3 2 1 0 1 1 1 2 2 2 2 1 2
7 6 5 6 7 7 9 10 12 12 11 12 12 13 11 9 8 8 8 8 10 13 15 16 18 18 18 18 17 16 15 13 12 10 8 6 4 3 1 1 1 2 2 2 3 3 2 2 2
7 5 5 7 8 8 9 10 12 12 13 13 14 14 12 10 9 9 9 10 11 13 14 17 19 19 18 18 18 17 16 14 13 11 9 7 5 4 3 2 2 3 3 3 3 3 2 2 2
7 6 7 7 8 8 9 10 12 13 14 14 14 14 13 12 10 9 9 10 12 13 15 17 19 20 20 19 19 18 17 15 14 12 10 8 7 5 4 3 3 4 4 4 3 3 2 2 2
8 8 8 8 8 9 9 11 13 14 14 15 14 14 14 12 11 10 10 11 12 14 16 17 20 21 21 21 20 19 17 16 14 13 11 9 7 6 5 4 4 4 5 4 4 3 3 3 3
9 9 9 9 9 10 11 12 14 15 15 15 15 14 14 13 12 11 11 12 13 14 16 19 22 23 23 22 21 19 18 16 15 13 11 10 8 7 5 4 4 5 5 4 4 4 4 4 4
9 10 10 10 10 10 12 13 15 16 16 16 16 15 14 13 13 12 11 11 13 15 16 19 21 24 25 24 23 21 19 18 16 14 12 10 9 7 5 4 4 4 4 4 4 4 4 4 4
10 10 10 10 11 11 12 13 16 16 17 17 17 16 15 14 13 12 12 11 12 13 15 18 20 23 24 23 23 22 20 19 17 15 13 11 9 8 6 4 3 3 3 3 4 4 3 3 3
10 10 10 12 12 12 12 13 16 17 18 18 18 17 16 14 13 12 12 13 12 12 14 18 19 21 23 24 24 23 22 20 18 16 14 12 10 8 6 4 3 3 3 3 3 3 3 3 3
11 10 11 12 12 11 12 14 17 18 18 19 19 18 16 15 13 13 12 12 11 11 12 17 19 21 23 25 25 23 22 21 19 17 15 13 11 8 6 5 4 3 3 3 3 2 2 2 2
12 11 11 12 12 11 12 14 18 18 19 18 18 17 16 14 12 13 12 11 10 9 12 15 19 21 23 24 24 23 23 21 20 18 15 13 11 9 7 6 4 3 3 3 3 2 2 2 2
12 11 11 12 12 11 12 14 16 17 17 16 16 16 15 13 12 11 11 10 9 9 11 15 18 21 22 23 23 24 23 21 20 19 16 14 12 10 8 7 6 4 3 4 3 3 2 2 2
12 11 11 12 12 11 11 13 15 15 16 15 15 15 14 13 11 10 10 9 8 9 11 13 17 20 21 21 23 24 23 22 21 20 17 15 13 11 9 8 7 6 5 5 4 4 3 3 2
12 12 12 11 10 10 11 12 14 15 15 15 15 15 14 13 13 12 10 8 8 9 10 13 16 19 21 22 22 23 22 22 22 19 18 16 14 12 10 9 8 7 6 6 5 5 4 3 3
13 13 12 10 9 10 11 11 14 15 16 15 15 15 14 14 13 11 9 7 7 8 10 12 15 18 21 23 22 22 22 22 22 20 18 17 15 14 12 10 9 8 8 7 6 6 5 4 4
14 14 12 10 9 9 11 11 13 15 16 15 14 14 14 14 12 11 9 6 6 6 8 11 14 17 20 23 22 22 22 23 23 20 18 17 16 15 13 12 11 10 9 9 8 7 7 6 5
14 13 12 10 9 9 10 10 11 14 14 13 13 14 13 13 11 11 9 6 4 4 7 10 13 15 18 21 21 22 22 23 23 21 19 18 17 15 14 14 12 12 11 10 10 9 8 7 7
15 13 11 9 9 10 11 10 11 13 12 11 13 13 12 12 11 11 9 7 5 4 5 9 12 14 15 18 20 20 22 22 22 21 20 19 18 16 15 15 14 13 12 12 11 11 11 10 10
16 15 13 11 10 10 11 10 11 11 11 11 12 13 12 12 11 11 10 7 5 4 5 8 10 12 14 17 19 20 20 20 20 21 20 20 18 17 16 15 15 14 14 13 13 13 13 13 13
18 17 15 15 13 10 10 11 11 11 11 11 12 12 11 11 12 11 10 7 5 4 4 6 8 11 13 15 18 19 20 20 20 21 20 20 19 17 16 16 16 16 15 16 16 15 15 15 15
19 18 18 16 13 12 11 11 11 12 12 11 11 12 11 10 10 10 10 8 6 4 3 4 7 10 12 14 17 18 19 19 19 19 19 20 19 17 17 17 18 18 17 18 18 18 18 18 18
19 19 18 17 16 14 12 12 13 12 11 11 11 11 10 10 9 9 9 8 6 4 3 3 5 8 10 13 15 16 17 18 19 19 19 19 19 18 18 18 19 19 19 19 19 20 20 21 21
21 20 20 18 17 16 14 13 14 12 11 11 11 10 10 9 9 10 9 8 6 5 3 2 3 5 8 10 12 13 14 16 16 17 18 19 19 19 19 19 19 19 19 20 21 21 22 23 24
Wind_Direction
20 20 22 24 23 24 13 358 350 341 336 333 323 302 258 237 213 213 216 211 206 199 194 191 190 190 194 197 197 192 182 169 157 147 134 117 101 86 75 66 62 61 61 62 69 78 79 79 86
17 18 21 23 30 25 358 352 346 340 337 328 314 311 281 246 230 221 219 213 209 203 199 195 196 196 197 198 198 194 186 176 164 154 141 124 107 91 78 69 64 60 60 63 69 81 83 82 89
14 17 21 26 30 19 355 348 344 340 339 332 320 308 293 261 233 228 222 218 214 208 203 200 199 200 199 200 200 196 189 181 172 162 151 132 114 97 84 74 67 60 60 64 70 79 85 88 96
12 16 23 27 22 7 356 348 342 341 342 339 336 321 298 280 254 242 236 228 220 214 208 206 205 205 203 204 204 201 194 187 180 172 161 142 121 105 92 76 64 58 60 64 67 73 78 88 105
12 17 23 24 13 2 356 350 345 346 348 348 349 342 321 301 276 258 246 233 224 218 214 212 210 209 209 209 208 205 199 193 188 181 173 156 137 120 95 73 60 51 53 56 53 54 60 80 114
13 18 30 18 4 359 353 349 346 347 350 349 348 343 328 311 292 274 255 237 227 222 219 217 213 211 211 211 208 207 205 201 197 191 183 172 159 137 104 72 54 43 39 35 21 20 38 63 152
11 17 25 16 4 357 351 348 347 346 344 349 349 342 333 321 304 288 264 244 233 228 222 219 214 213 211 210 209 210 208 206 203 199 194 185 176 162 125 72 38 25 20 8 351 346 338 260 216
5 11 14 9 1 351 349 346 347 346 348 346 346 342 334 323 309 294 267 250 240 233 226 220 217 213 212 211 211 212 211 211 208 207 205 197 192 195 168 70 345 338 342 338 337 329 315 267 235
357 3 359 350 349 341 342 344 348 347 346 345 344 340 335 327 314 294 272 253 242 236 231 223 219 215 214 209 210 212 214 215 214 214 212 210 210 211 213 263 288 297 307 314 321 320 310 265 236
347 353 338 339 340 334 333 339 344 344 341 343 339 336 332 323 314 299 275 257 245 238 231 224 219 217 215 210 212 215 216 216 216 218 220 219 219 222 233 258 268 277 286 295 303 303 302 263 236
332 334 331 335 335 331 330 335 338 339 337 337 336 335 331 323 312 299 276 256 248 239 232 225 220 217 216 215 215 217 217 216 218 219 221 221 225 232 241 252 260 267 272 276 282 287 284 266 245
322 322 321 326 328 327 329 331 332 334 335 334 332 329 327 321 311 300 280 263 250 238 233 227 220 219 218 218 218 218 218 218 221 220 221 223 230 235 242 246 252 260 266 269 273 276 270 260 251
313 313 315 317 321 323 326 327 328 328 329 329 329 327 326 320 306 299 285 269 257 245 234 231 222 220 218 219 218 218 218 220 221 220 223 226 231 234 238 244 254 263 267 265 265 267 267 262 259
303 305 309 312 316 320 321 324 324 325 325 326 327 325 324 322 314 305 296 277 256 241 234 230 225 220 217 217 216 217 220 221 221 222 225 226 227 230 234 243 257 265 261 254 253 261 268 266 264
299 301 305 309 316 320 322 323 320 323 323 324 325 323 319 319 313 304 297 290 268 248 234 225 222 217 215 214 215 216 218 218 219 222 223 225 227 231 237 243 254 258 252 242 241 247 260 260 260
297 295 295 302 314 321 322 320 316 320 323 324 325 324 320 317 311 305 300 294 279 255 237 222 218 216 215 213 214 214 212 215 218 220 222 225 228 232 236 236 241 245 238 230 230 236 249 254 256
289 281 283 295 310 317 318 316 314 319 320 323 324 325 324 319 311 305 301 296 281 260 237 224 218 214 215 214 214 213 213 214 217 218 221 225 226 228 228 229 231 232 223 217 222 224 234 240 244
271 275 282 291 306 315 316 315 317 320 321 323 326 328 324 318 311 302 301 297 283 260 235 222 217 214 214 214 214 213 213 215 217 219 221 222 223 222 223 224 224 220 215 213 210 204 215 224 231
276 276 279 288 303 312 316 315 315 319 322 326 331 332 329 320 310 307 302 293 278 256 233 225 220 216 214 214 215 216 214 215 219 218 218 219 218 216 217 220 220 216 209 206 203 192 197 205 212
272 270 273 282 297 309 315 313 313 317 324 331 337 337 336 331 322 312 306 295 270 252 238 235 223 217 214 212 214 213 214 216 215 214 216 217 217 216 217 221 219 214 209 204 202 195 195 196 192
264 261 264 276 299 310 316 319 315 318 323 331 337 340 339 335 327 318 311 294 270 253 247 237 224 218 214 212 213 214 213 213 211 212 214 216 217 219 220 221 217 211 208 207 205 200 198 199 198
256 257 261 275 294 302 312 319 314 318 321 327 335 339 338 336 333 330 321 301 281 257 242 230 221 215 214 213 212 210 211 213 211 212 214 216 218 219 221 222 216 213 212 212 209 207 206 208 214
249 252 256 269 285 300 312 318 315 318 322 328 334 339 339 339 337 338 331 311 290 258 235 221 215 214 213 211 211 211 213 212 212 213 215 218 219 221 225 224 221 220 218 217 218 218 217 219 224
250 251 256 269 284 296 302 312 319 322 325 329 335 339 340 344 347 345 337 321 302 265 231 214 210 212 211 210 211 212 212 213 214 215 218 219 220 223 226 225 225 223 221 222 225 226 226 229 235
247 246 254 271 282 285 291 306 312 320 324 329 335 340 343 345 350 350 341 329 312 279 230 207 207 208 205 206 208 210 211 213 216 215 216 218 220 221 223 226 226 226 225 227 230 234 234 236 243
241 239 238 243 258 273 289 299 308 318 321 327 334 339 343 345 348 351 347 335 320 288 241 212 211 208 205 206 209 209 209 211 213 213 216 219 220 221 225 228 229 231 232 233 237 241 242 243 247
238 237 237 246 257 268 277 292 304 311 318 325 331 338 341 344 346 349 349 339 321 295 251 222 215 208 209 208 209 209 208 210 212 214 217 219 219 223 229 232 233 235 237 239 241 244 246 248 251
239 239 242 244 253 263 277 290 296 305 317 323 329 334 337 340 344 348 350 343 330 311 274 233 213 210 208 207 207 209 212 212 213 216 219 221 223 227 231 234 237 238 240 244 246 248 250 252 254
245 244 244 246 247 253 266 277 281 292 306 315 323 329 331 336 340 342 346 346 335 317 287 256 222 213 213 210 210 214 217 217 220 221 222 225 228 231 235 238 240 243 245 246 249 251 253 255 257
246 245 247 249 257 261 262 270 276 282 294 303 311 318 323 329 336 339 336 337 330 312 293 274 229 215 215 212 213 217 219 218 223 228 229 230 234 237 239 241 242 245 248 251 254 256 257 259 261
Height
5900 5899 5898 5898 5898 5898 5897 5895 5894 5892 5891 5889 5888 5887 5886 5886 5886 5888 5886 5884 5885 5886 5886 5887 5889 5890 5892 5893 5894 5894 5895 5895 5895 5896 5896 5896 5897 5897 5897 5897 5897 5896 5896 5896 5895 5895 5894 5894 5894
5900 5899 5899 5898 5898 5899 5897 5895 5893 5892 5890 5889 5887 5886 5885 5884 5884 5884 5883 5883 5883 5884 5885 5886 5888 5889 5891 5892 5893 5893 5894 5895 5895 5896 5896 5896 5897 5897 5897 5897 5897 5896 5896 5895 5895 5895 5894 5894 5894
5900 5899 5899 5898 5898 5898 5897 5894 5893 5891 5889 5888 5886 5885 5884 5883 5882 5882 5882 5882 5882 5883 5884 5885 5886 5888 5890 5891 5892 5893 5893 5894 5895 5895 5896 5896 5897 5897 5897 5897 5896 5896 5896 5895 5895 5895 5894 5894 5894
5899 5899 5899 5899 5898 5897 5896 5894 5892 5890 5888 5887 5885 5884 5883 5882 5881 5881 5880 5880 5880 5881 5882 5884 5885 5887 5888 5890 5891 5892 5893 5893 5894 5895 5896 5896 5896 5897 5897 5896 5896 5896 5896 5895 5895 5894 5894 5894 5894
5899 5898 5899 5898 5897 5896 5895 5893 5891 5889 5888 5886 5884 5883 5882 5881 5879 5879 5879 5879 5879 5880 5881 5882 5884 5885 5887 5888 5890 5891 5892 5893 5894 5894 5895 5896 5896 5896 5896 5896 5896 5896 5895 5895 5895 5894 5894 5894 5894
5899 5898 5899 5899 5897 5896 5894 5892 5890 5888 5887 5885 5883 5882 5880 5879 5878 5877 5877 5877 5877 5878 5879 5880 5882 5883 5885 5887 5889 5890 5891 5892 5893 5894 5894 5895 5896 5896 5896 5896 5895 5895 5895 5894 5894 5894 5893 5893 5893
5898 5898 5898 5898 5896 5895 5894 5891 5890 5888 5886 5884 5882 5881 5879 5877 5876 5876 5875 5874 5875 5876 5877 5878 5880 5881 5883 5885 5887 5888 5890 5891 5892 5893 5894 5895 5895 5895 5895 5895 5895 5894 5894 5894 5893 5893 5893 5892 5892
5897 5898 5897 5897 5896 5895 5893 5891 5889 5887 5885 5883 5881 5879 5877 5876 5874 5873 5873 5872 5873 5874 5874 5876 5877 5879 5881 5883 5885 5887 5888 5890 5891 5892 5893 5894 5894 5894 5894 5894 5894 5894 5893 5893 5892 5892 5892 5892 5892
5896 5898 5897 5896 5895 5894 5892 5890 5888 5886 5883 5881 5879 5877 5875 5873 5872 5871 5870 5870 5870 5871 5872 5873 5875 5877 5879 5880 5883 5884 5886 5888 5889 5890 5892 5893 5893 5893 5893 5893 5893 5893 5892 5892 5892 5891 5891 5891 5891
5896 5896 5896 5894 5893 5892 5890 5889 5887 5884 5882 5879 5877 5874 5872 5870 5869 5867 5867 5867 5867 5868 5869 5871 5873 5874 5876 5878 5880 5882 5884 5886 5888 5889 5890 5891 5892 5892 5892 5892 5892 5892 5892 5891 5891 5890 5890 5890 5890
5895 5895 5893 5892 5891 5890 5889 5887 5885 5883 5880 5878 5875 5872 5869 5867 5865 5864 5863 5863 5864 5865 5866 5868 5870 5872 5874 5876 5878 5880 5882 5884 5886 5887 5888 5890 5890 5891 5891 5891 5891 5891 5891 5890 5890 5889 5889 5889 5889
5893 5893 5891 5891 5890 5889 5887 5886 5884 5881 5879 5876 5873 5870 5867 5865 5862 5861 5860 5860 5860 5861 5863 5864 5867 5869 5871 5873 5876 5878 5880 5882 5884 5885 5886 5888 5889 5890 5890 5890 5890 5890 5890 5889 5889 5889 5888 5888 5888
5892 5891 5890 5889 5888 5887 5886 5884 5882 5879 5877 5873 5870 5867 5864 5862 5860 5859 5858 5857 5857 5858 5859 5860 5862 5865 5868 5870 5873 5876 5878 5880 5882 5883 5885 5886 5887 5888 5888 5889 5889 5889 5888 5888 5888 5888 5887 5887 5887
5890 5890 5889 5888 5887 5886 5885 5883 5880 5878 5874 5871 5868 5865 5862 5860 5857 5856 5854 5852 5852 5853 5855 5857 5858 5861 5864 5867 5870 5873 5876 5878 5880 5882 5883 5884 5886 5886 5887 5887 5888 5888 5887 5887 5887 5887 5887 5887 5887
5888 5888 5888 5886 5885 5884 5883 5882 5878 5875 5872 5869 5866 5863 5860 5857 5855 5853 5851 5850 5849 5849 5851 5853 5855 5857 5860 5863 5866 5870 5873 5875 5878 5880 5881 5883 5884 5885 5885 5886 5887 5887 5886 5886 5886 5886 5886 5886 5886
5887 5887 5887 5885 5884 5883 5883 5881 5877 5873 5870 5867 5863 5860 5857 5854 5852 5850 5848 5847 5846 5846 5847 5849 5851 5854 5857 5860 5863 5867 5870 5873 5875 5878 5880 5881 5883 5884 5884 5885 5885 5886 5886 5886 5886 5886 5886 5886 5886
5885 5886 5885 5884 5882 5881 5880 5878 5875 5871 5868 5865 5861 5858 5855 5852 5850 5848 5846 5844 5843 5842 5843 5845 5848 5851 5854 5857 5860 5864 5867 5870 5873 5875 5878 5879 5881 5882 5883 5884 5884 5885 5885 5885 5885 5885 5885 5885 5885
5883 5883 5882 5881 5880 5879 5877 5876 5872 5869 5866 5862 5859 5855 5852 5850 5847 5845 5843 5842 5840 5840 5841 5842 5845 5847 5850 5854 5857 5861 5864 5867 5870 5873 5875 5877 5879 5880 5881 5882 5883 5884 5884 5884 5885 5885 5885 5885 5885
5879 5879 5879 5879 5877 5877 5875 5873 5870 5867 5864 5860 5857 5853 5850 5847 5845 5842 5841 5839 5838 5838 5838 5840 5842 5844 5847 5851 5855 5858 5862 5865 5868 5871 5873 5875 5877 5879 5880 5881 5882 5883 5883 5884 5884 5884 5885 5885 5885
5876 5876 5877 5876 5875 5874 5873 5871 5868 5865 5862 5858 5855 5851 5848 5845 5842 5840 5839 5837 5836 5836 5837 5837 5839 5842 5845 5848 5852 5855 5859 5862 5865 5868 5871 5873 5875 5877 5879 5880 5881 5882 5883 5883 5884 5884 5884 5885 5885
5872 5873 5874 5873 5872 5872 5871 5869 5866 5863 5860 5856 5853 5850 5846 5843 5840 5838 5836 5834 5834 5833 5834 5835 5837 5839 5842 5845 5849 5852 5856 5859 5862 5866 5869 5871 5873 5875 5877 5878 5880 5881 5881 5882 5883 5883 5884 5884 5884
5869 5870 5870 5870 5870 5871 5869 5868 5864 5861 5858 5855 5851 5848 5845 5841 5838 5836 5833 5832 5831 5831 5831 5832 5834 5836 5839 5843 5846 5850 5853 5857 5860 5863 5866 5869 5871 5873 5875 5877 5878 5879 5880 5881 5882 5883 5883 5884 5884
5865 5866 5867 5867 5867 5868 5867 5865 5864 5859 5856 5853 5850 5847 5843 5840 5837 5834 5832 5830 5829 5828 5828 5829 5831 5834 5836 5840 5843 5847 5851 5855 5858 5861 5864 5867 5869 5871 5873 5875 5876 5878 5879 5880 5881 5882 5882 5883 5883
5861 5863 5864 5865 5866 5867 5865 5863 5862 5857 5854 5851 5848 5845 5842 5839 5836 5834 5831 5829 5828 5827 5826 5827 5829 5831 5833 5837 5840 5844 5848 5852 5855 5859 5862 5864 5867 5869 5871 5873 5875 5876 5877 5878 5879 5880 5881 5882 5882
5858 5861 5863 5864 5865 5865 5862 5860 5859 5855 5852 5850 5847 5844 5841 5838 5836 5833 5831 5828 5827 5826 5826 5827 5828 5830 5832 5835 5838 5842 5845 5849 5852 5856 5859 5861 5864 5867 5869 5871 5872 5874 5875 5876 5877 5878 5879 5880 5880
5854 5857 5860 5863 5864 5863 5860 5858 5857 5853 5851 5848 5845 5843 5840 5838 5835 5833 5830 5828 5827 5826 5826 5826 5827 5828 5831 5834 5837 5840 5843 5846 5849 5853 5856 5859 5861 5864 5866 5868 5870 5871 5872 5873 5874 5875 5876 5877 5878
5850 5852 5856 5857 5858 5858 5858 5856 5853 5851 5849 5847 5844 5842 5839 5837 5835 5832 5830 5828 5827 5826 5826 5826 5826 5827 5830 5832 5834 5837 5841 5844 5847 5850 5853 5856 5859 5861 5863 5865 5867 5868 5869 5870 5871 5872 5873 5874 5874
5846 5848 5850 5852 5854 5855 5856 5854 5852 5849 5847 5845 5843 5841 5839 5837 5835 5832 5830 5828 5827 5826 5826 5826 5826 5827 5828 5831 5833 5836 5839 5842 5845 5847 5850 5853 5856 5858 5860 5862 5863 5864 5865 5866 5867 5868 5869 5869 5870
5842 5844 5845 5848 5850 5851 5853 5854 5849 5847 5845 5843 5841 5839 5838 5836 5834 5832 5830 5828 5827 5827 5826 5826 5826 5827 5828 5830 5832 5834 5837 5840 5842 5845 5847 5850 5852 5854 5856 5858 5859 5860 5861 5862 5863 5863 5864 5864 5865
5837 5839 5841 5843 5845 5845 5847 5851 5845 5844 5842 5841 5840 5838 5837 5835 5834 5832 5830 5828 5827 5826 5826 5826 5826 5827 5828 5829 5831 5833 5835 5837 5840 5842 5844 5847 5849 5850 5852 5853 5855 5856 5857 5857 5858 5858 5859 5859 5859